Theta_e
290 290 289 289 288 288 287 286 285 283 284 286 284 286 287 287 288 287 286 288 291 293 294 295 295 296 297 299 300 301 301 301 301 302 302 302 302 303
289 288 288 288 287 286 286 285 285 284 282 283 285 284 286 286 286 287 286 288 289 291 292 293 294 295 296 296 297 298 299 300 300 300 301 301 301 302
287 286 285 285 285 285 285 284 283 283 280 281 282 285 282 284 286 286 286 285 285 288 289 289 290 291 292 293 294 295 296 297 298 298 299 299 300 300
284 284 283 285 283 284 284 283 283 283 281 279 281 282 283 284 284 283 283 284 283 285 288 288 289 289 290 290 291 291 292 293 294 294 295 296 297 298
282 281 280 280 279 281 282 281 283 283 283 281 280 283 283 283 282 282 282 282 283 285 286 287 287 288 288 289 289 289 290 290 290 291 291 292 293 294
279 278 278 279 279 279 279 279 280 279 279 279 278 278 278 278 275 274 273 275 275 278 280 282 284 285 286 286 286 287 287 287 287 288 290 290 291 291
277 277 277 278 279 279 278 277 277 276 276 274 274 272 272 271 271 272 270 271 272 273 274 273 274 274 276 281 281 283 285 286 287 287 288 288 288 289
274 275 275 276 277 278 278 278 276 274 272 270 269 269 269 269 270 269 268 267 265 272 269 268 271 270 272 273 277 279 280 282 282 283 284 288 288 288
273 274 274 275 276 275 274 274 274 275 275 270 267 267 267 269 269 267 267 266 265 267 266 263 267 267 270 271 274 275 276 277 278 279 280 281 283 286
271 271 273 273 275 274 271 270 271 271 271 270 269 268 269 269 268 267 265 263 263 264 265 259 265 264 267 266 271 273 275 277 277 278 278 279 280 282
271 270 270 272 275 275 270 267 268 269 270 270 270 270 270 270 269 265 259 258 257 259 262 261 263 261 263 264 267 272 274 274 275 275 276 277 278 279
269 268 271 272 274 274 269 266 266 267 263 263 263 264 265 265 267 263 261 257 256 256 262 259 259 260 257 262 264 265 267 271 272 273 273 275 276 273
268 266 267 272 272 272 270 266 267 266 261 259 259 260 260 261 261 261 261 259 257 256 261 261 258 258 258 258 261 264 265 266 265 267 271 272 273 273
267 266 266 270 269 268 266 268 268 263 258 257 256 257 258 258 259 259 260 260 261 259 260 260 258 257 257 257 258 262 263 264 264 264 264 268 270 271
268 267 267 267 266 263 264 265 260 257 256 255 255 256 257 258 258 258 259 259 259 259 260 260 259 259 260 258 258 259 260 261 262 262 262 262 262 263
262 259 263 262 262 261 258 259 258 257 255 255 255 256 256 256 256 258 257 257 257 257 260 261 261 260 258 259 258 258 259 257 260 260 261 261 262 263
258 255 254 254 254 255 255 255 255 255 254 255 254 254 254 255 256 257 257 256 255 255 256 258 259 259 259 258 256 257 257 258 259 260 260 259 261 261
253 251 252 252 252 253 253 253 254 254 254 254 253 254 254 254 254 256 257 256 254 255 255 256 256 255 256 257 262 258 259 259 259 260 260 258 258 260
245 248 250 251 251 252 252 252 252 253 253 253 253 253 253 254 254 254 255 255 254 255 255 255 255 254 252 251 257 264 259 259 258 257 258 258 257 258
244 246 249 250 250 251 251 251 252 252 252 252 252 252 253 253 253 254 255 254 254 254 253 255 254 254 253 252 252 255 262 258 258 258 259 261 262 266
250 250 250 250 250 250 251 251 251 251 251 251 252 252 253 253 253 254 254 254 254 253 252 253 255 258 255 255 252 254 258 264 263 260 260 259 258 258
250 250 250 250 249 249 250 250 250 250 251 251 252 252 253 253 253 254 254 253 253 253 253 254 255 255 254 253 253 254 256 259 262 265 266 265 261 258
249 250 250 249 249 249 250 250 250 250 251 252 252 253 253 253 255 255 254 253 253 252 253 253 254 254 254 255 255 255 256 257 258 260 262 267 269 270
Wind_Speed
9 8 8 6 5 6 5 3 2 3 2 3 2 5 5 6 8 7 8 13 20 22 24 25 27 28 30 31 33 35 36 36 36 36 37 37 38 37
6 9 7 6 6 4 3 3 2 1 2 2 2 3 5 6 8 9 10 18 20 23 25 27 28 30 32 33 35 36 37 38 38 39 39 40 40 40
9 9 11 8 6 5 4 3 3 2 2 2 3 7 4 6 9 8 10 11 11 22 24 26 28 29 30 31 32 34 35 37 38 39 40 41 41 41
11 13 13 8 9 7 6 6 4 3 2 7 5 5 7 8 11 11 9 8 10 17 25 26 28 30 32 32 33 34 34 35 36 38 39 40 41 42
13 15 13 12 12 10 9 8 7 5 5 5 7 4 4 6 9 9 9 10 9 19 24 27 29 30 31 32 33 33 33 34 36 37 37 39 39 41
14 14 13 14 12 11 9 8 8 7 6 6 7 7 8 9 10 11 11 10 11 12 18 22 25 25 28 30 34 32 32 36 37 38 37 37 38 40
12 11 12 15 21 17 8 10 10 9 8 8 7 8 8 10 11 10 12 12 11 13 9 10 14 14 16 23 26 31 34 35 37 38 38 38 38 38
11 11 11 15 17 21 20 18 14 10 11 8 7 9 12 11 9 11 12 13 12 1 14 15 12 13 13 13 26 33 34 35 39 41 43 39 39 38
13 12 12 11 14 12 16 17 14 15 14 11 11 11 13 12 12 13 13 13 13 13 15 17 11 13 10 12 26 36 37 36 37 38 38 43 45 41
13 14 14 13 16 15 14 13 12 11 11 10 10 10 11 12 11 12 13 14 13 11 11 15 7 12 11 14 29 32 31 32 33 36 38 41 43 43
13 13 14 13 22 23 13 13 13 12 14 20 20 21 21 21 19 10 9 11 13 12 12 10 9 17 16 15 12 24 30 37 33 36 39 38 40 41
10 12 18 19 24 23 12 12 11 12 13 12 12 14 16 15 21 11 10 12 12 11 4 10 16 13 11 11 11 14 12 28 33 34 36 38 38 19
8 8 9 25 24 22 20 11 14 16 14 10 10 9 9 10 9 10 11 10 12 14 17 14 16 14 11 17 18 14 15 15 14 19 30 33 34 30
9 8 10 24 22 20 15 22 22 16 8 8 8 9 9 9 10 11 13 12 12 17 20 15 14 14 16 18 18 19 17 16 14 15 14 22 29 30
8 16 24 23 21 13 21 22 14 7 8 8 9 9 10 11 13 12 13 14 15 16 14 16 14 16 13 17 19 19 21 19 15 12 10 13 14 12
10 10 16 17 16 15 9 11 8 8 9 9 10 11 11 10 11 10 12 13 13 16 15 14 15 15 15 15 16 19 17 15 16 16 15 15 14 13
10 8 7 7 8 8 7 8 8 8 8 9 10 11 11 11 11 11 11 12 12 14 17 15 14 15 15 18 18 16 17 17 16 17 16 17 16 15
6 6 8 8 8 9 9 9 9 10 9 10 10 10 11 12 12 12 11 11 13 13 15 15 16 16 13 12 24 17 15 17 17 17 17 18 20 15
2 4 7 8 8 8 9 9 10 9 11 9 10 11 11 11 14 12 12 12 13 13 14 14 14 14 17 21 15 21 15 18 18 18 17 16 19 21
2 4 6 7 8 8 9 9 10 10 9 9 10 10 10 11 13 12 12 14 15 15 15 14 13 12 14 19 24 25 26 16 16 18 18 16 20 36
6 7 7 7 8 8 9 9 10 10 10 10 10 11 11 11 12 12 13 18 18 14 17 17 17 26 16 15 15 21 18 27 25 19 19 18 20 19
8 8 8 8 8 8 9 9 9 10 10 10 11 10 11 10 12 14 13 15 14 14 16 16 18 15 14 14 19 25 22 21 25 31 33 32 16 15
7 8 8 8 8 8 9 9 9 10 10 10 10 11 11 12 12 12 13 14 14 15 16 19 17 14 15 15 19 20 28 25 19 21 22 26 30 32
Wind_Direction
57 66 83 76 61 57 52 29 65 327 330 338 27 61 31 341 320 313 295 298 298 297 299 298 294 289 285 283 280 276 272 270 270 269 268 268 268 267
68 71 63 62 72 59 53 55 37 262 279 36 312 323 332 317 309 304 298 297 296 300 299 298 293 289 286 282 278 276 275 273 271 271 270 270 269 269
44 50 55 41 46 44 39 33 25 356 294 287 268 315 302 321 299 290 287 295 297 295 296 295 292 290 288 285 284 282 280 279 278 277 275 273 271 270
50 49 45 40 38 28 31 22 7 336 282 310 306 325 310 303 289 296 296 293 292 292 295 296 295 293 291 289 288 287 286 284 281 278 278 275 272 271
53 50 44 41 36 21 21 12 358 340 318 309 316 313 306 320 328 314 316 310 302 302 302 297 294 292 291 290 289 288 285 284 283 282 281 279 276 272
57 50 41 36 30 16 14 5 356 349 338 335 333 340 342 357 326 327 318 315 310 308 303 298 306 311 308 301 294 291 287 286 284 283 282 279 276 274
50 47 43 35 30 24 17 8 6 3 7 355 347 337 336 340 335 327 312 313 308 298 315 327 308 297 293 296 294 290 285 281 282 280 276 273 273 273
39 36 35 28 21 21 17 16 16 10 12 358 341 332 331 325 323 325 317 320 316 279 325 299 294 290 291 289 300 303 301 304 303 299 296 289 271 272
37 28 28 19 13 14 7 5 11 5 14 355 338 334 321 321 322 320 315 310 300 311 310 295 300 289 302 295 311 302 293 293 292 288 288 290 286 285
35 26 15 11 4 3 1 353 355 350 359 348 335 319 311 320 322 315 319 304 297 296 306 287 314 297 306 301 295 294 294 296 303 305 300 296 291 290
26 20 5 0 358 358 3 347 345 341 347 336 332 326 327 329 326 330 315 319 311 308 292 278 305 311 299 293 276 291 298 302 303 304 298 301 296 292
16 12 4 356 358 356 6 343 335 344 344 335 326 327 329 322 328 325 319 309 308 309 30 329 305 319 302 294 292 293 287 294 295 300 300 294 296 294
3 358 355 351 353 354 1 332 339 351 336 327 321 316 312 312 312 309 306 299 299 281 293 310 302 300 279 303 301 297 295 295 296 288 287 287 289 290
2 353 342 349 350 351 353 343 350 345 322 317 309 305 309 310 308 303 296 289 280 278 293 290 286 295 297 297 296 304 298 296 294 291 288 286 289 287
357 354 351 350 350 349 344 346 351 331 325 319 315 312 313 309 306 304 298 294 287 282 283 285 281 288 284 291 292 296 300 303 296 280 292 280 276 274
14 358 348 347 345 342 331 332 327 323 317 312 311 308 309 311 310 308 307 309 303 302 298 291 288 293 289 286 286 287 289 282 290 282 280 278 272 264
19 352 336 339 335 333 329 322 319 316 316 315 314 311 311 311 309 309 305 305 301 306 309 310 299 288 278 281 283 274 281 279 275 278 287 282 274 269
10 342 338 334 333 328 326 321 318 318 318 317 310 308 310 312 310 311 306 307 305 308 307 308 311 309 297 259 259 277 280 281 281 280 278 278 279 272
358 335 331 331 325 320 317 317 316 315 312 308 307 308 308 307 312 310 312 312 310 310 309 307 308 309 310 303 297 275 282 285 287 281 273 268 272 276
338 313 320 323 321 315 316 316 313 313 314 312 309 307 308 308 312 313 316 314 314 312 308 307 304 301 298 293 299 299 286 277 279 279 282 275 271 275
335 331 324 319 316 314 312 310 307 308 308 307 308 309 310 312 310 309 311 313 311 307 305 305 301 297 286 288 283 284 291 294 287 283 287 286 287 286
334 325 322 316 313 311 309 307 309 310 311 311 308 308 309 310 305 312 313 311 307 303 297 297 303 304 298 287 287 292 296 302 298 289 284 276 275 274
310 311 315 310 308 311 310 311 310 305 306 305 306 310 310 308 308 310 305 305 305 304 304 307 309 305 296 296 294 297 299 304 307 312 305 295 282 274